Back to catalog

STARLINK-6357

AliveCommunicationsVLEO
NORAD 56783·PAYLOAD·🇺🇸 United States

Launched May 31, 2023 from Vandenberg Space Force Base

Loading…

Next Passes (next 24 hours)

TLE

FreshSource: CelesTrak SupGP

Epoch: Sep 14, 2026, 22:01 UTC

1 56783C 23078S   26257.91784722  .00668980  00000+0  51690-1 0  2576
2 56783  70.0008 207.4116 0003075 266.9570 190.1334 15.01109625    19

Track STARLINK-6357 in real time with AllMySat

Download on the App Store